Terug naar catalogus

NOAA 16 DEB

ActiefSSO
NORAD 41147·DEBRIS·🇺🇸 United States

Gelanceerd Sep 21, 2000 vanaf Vandenberg Space Force Base

Loading…

Volgende Passages (komende 24 uur)

TLE

VersSource: Space-Track

Epoch: Sep 14, 2026, 21:24 UTC

1 41147U 00055CE  26257.89170107  .00003651  00000-0  17790-2 0  9993
2 41147  98.9510 300.1335 0069228 164.9923 195.3327 14.17493700551284

Volg NOAA 16 DEB in realtime met AllMySat

Download on the App Store